sat.trackr.live / text

‹ back to catalog

GSAT-16

NORAD 40332 · 2014-078A

PAYLOAD ACTIVE UNKNOWN

§ Identity

Operator
Country
IND
Launch date
2014-12-06
Launch site
FRGUI
Launch vehicle
Mass (kg)
RCS (m²)
63.25

Purposes: comms

External: N2YO · Heavens-Above · Gunter

§ Orbital elements

Epoch: 2026-09-18T22:24:59.508576Z

Period
1,436.06 min
Inclination
0.0187°
Eccentricity
0.0005884
Mean motion
1.00274185 rev/d
Perigee alt
35,761.1 km
Apogee alt
35,810.7 km
Semi-major
42,164.1 km
B*
0.0000e+0
RAAN
182.5138°
Arg perigee
289.9928°
Mean anomaly
276.6906°
Rev number
4,305

§ Raw data

GSAT-161 40332U 14078A   26261.93402209  .00000080  00000+0  00000+0 0  99942 40332   0.0187 182.5138 0005884 289.9928 276.6906  1.00274185 43056

JSON: /api/v1/satellites/40332 · /tle

For live sub-satellite position, see the globe view (requires WebGL).

§ Visibility from observer

Set your observer location to see the next 7 days of passes ≥ 10°. The values pass through the URL so the page stays shareable.

No JS? Fill the form by hand. The geolocation button needs JavaScript.